Regional Weather Roundup
Issued by NWS Binghamton, NY

Home | Current Version | Previous Version | Text Only | Print | Product List | Glossary On
Versions: 1 2 3 4 5 6 7 8 9 10 11 12 13 14 15 16 17 18 19 20 21 22 23 24 25 26 27
000
ASUS41 KBGM 242310
RWRBGM
RWRBGM
BINGHAMTON REGIONAL WEATHER ROUNDUP
NATIONAL WEATHER SERVICE BINGHAMTON NY
700 PM EDT FRI OCT 24 2014

Note: "fair" indicates few or no clouds below 12,000 feet with no
significant weather and/or obstructions to visibility.

* = Station(s) that does not report precipitation, such as rain,
snow, etc, also no thunder or fog.

!NYZ009-015>018-022>025-036-037-044>046-055>057-062-250000
...CENTRAL NEW YORK...

CITY           SKY/WX    TMP DP  RH WIND       PRES   REMARKS
BINGHAMTON     PTCLDY    51  39  63 NW8       29.89S
CORTLAND       FAIR      46  37  71 CALM      29.92R
DANSVILLE      MOCLDY    51  32  48 NW3       29.95R
ELMIRA         PTCLDY    49  34  56 CALM      29.91R
ITHACA         PTCLDY    49  38  65 NW6       29.92S
HAMILTON       CLEAR     50  37  62 NW3       29.89R
MONTICELLO     CLEAR     54  37  54 NW12G18   29.84R
NORWICH        CLEAR     48  36  61 N3        29.89S
ONEONTA        CLEAR     48  34  57 NW3       29.88R
PENN YAN       MOCLDY    53  32  44 W7        29.92R
ROME           CLEAR     50  41  71 NW8       29.90R
SIDNEY         CLEAR     55  39  54 CALM      29.88R
SYRACUSE       PTCLDY    51  33  50 W3        29.91R
$$

!PAZ038>040-043-044-047-048-072-250000
...NORTHEAST PENNSYLVANIA...

CITY           SKY/WX    TMP DP  RH WIND       PRES   REMARKS
HAZLETON       PTCLDY    59  34  38 NW9       29.90R
SCRANTON       CLEAR     59  39  47 N13       29.87R
TOWANDA*       CLEAR     54  30  40 CALM      29.91R
$$
&&
KEY
WCI = WIND CHILL INDEX
VSB = VISIBILITY
HX  = HEAT INDEX
$$



USA.gov is the U.S. government's official web portal to all federal, state and local government web resources and services.